When you browse on this site, cookies collect data to enhance your experience and personalize the content and advertising you see.
Visit our Privacy Policy to learn more. By continuing to use the site, you agree to this use of cookies and data.
EN

Hourly Weather Nagyatad

Today, 6 August, Thursday

Time Temperature Precipitation Wind Pressure Humidity
00:00 +18°C° 0.7 mm 4 mps 751 mmHg 94%
01:00 +18°C° 0.7 mm 4 mps 751 mmHg 95%
02:00 +18°C° 0.1 mm 3 mps 751 mmHg 95%
03:00 +17°C° 0.1 mm 3 mps 751 mmHg 95%
04:00 +17°C° 0.1 mm 3 mps 751 mmHg 96%
05:00 +18°C° 0 mm 3 mps 751 mmHg 95%
06:00 +18°C° 0 mm 3 mps 751 mmHg 94%
07:00 +19°C° 0 mm 3 mps 751 mmHg 93%
08:00 +20°C° 0 mm 3 mps 752 mmHg 87%
09:00 +22°C° 0 mm 3 mps 752 mmHg 82%
10:00 +24°C° 0 mm 3 mps 752 mmHg 76%
11:00 +25°C° 0 mm 3 mps 752 mmHg 75%
12:00 +25°C° 0 mm 3 mps 752 mmHg 73%
13:00 +26°C° 0 mm 3 mps 752 mmHg 72%
14:00 +26°C° 0.2 mm 3 mps 752 mmHg 70%
15:00 +27°C° 0.2 mm 3 mps 751 mmHg 69%
16:00 +27°C° 0.2 mm 3 mps 751 mmHg 67%
17:00 +26°C° 0.3 mm 2 mps 751 mmHg 73%
18:00 +25°C° 0.3 mm 2 mps 751 mmHg 78%
19:00 +23°C° 0.3 mm 1 mps 751 mmHg 84%
20:00 +23°C° 0 mm 1 mps 752 mmHg 86%
21:00 +22°C° 0 mm 1 mps 752 mmHg 87%
22:00 +21°C° 0 mm 1 mps 752 mmHg 89%
23:00 +21°C° 0 mm 1 mps 752 mmHg 90%

Tomorrow, 7 August, Friday

Time Temperature Precipitation Wind Pressure Humidity
00:00 +20°C° 0 mm 2 mps 752 mmHg 91%
01:00 +19°C° 0 mm 2 mps 752 mmHg 92%
02:00 +19°C° 0 mm 2 mps 752 mmHg 92%
03:00 +19°C° 0 mm 2 mps 752 mmHg 92%
04:00 +18°C° 0 mm 2 mps 752 mmHg 93%
05:00 +19°C° 0 mm 3 mps 752 mmHg 89%
06:00 +20°C° 0 mm 3 mps 753 mmHg 85%
07:00 +21°C° 0 mm 3 mps 753 mmHg 82%
08:00 +24°C° 0 mm 3 mps 753 mmHg 74%
09:00 +26°C° 0 mm 3 mps 753 mmHg 66%
10:00 +28°C° 0 mm 3 mps 753 mmHg 59%
11:00 +29°C° 0 mm 3 mps 753 mmHg 54%
12:00 +30°C° 0 mm 3 mps 753 mmHg 49%
13:00 +31°C° 0 mm 2 mps 753 mmHg 44%
14:00 +31°C° 0 mm 3 mps 752 mmHg 45%
15:00 +31°C° 0 mm 3 mps 752 mmHg 46%
16:00 +32°C° 0 mm 4 mps 752 mmHg 46%
17:00 +29°C° 0 mm 3 mps 752 mmHg 53%
18:00 +27°C° 0 mm 2 mps 752 mmHg 59%
19:00 +26°C° 0 mm 2 mps 752 mmHg 66%
20:00 +25°C° 0 mm 2 mps 752 mmHg 67%
21:00 +24°C° 0 mm 2 mps 752 mmHg 69%
22:00 +24°C° 0 mm 3 mps 753 mmHg 70%
23:00 +23°C° 0 mm 2 mps 752 mmHg 71%

Day after tomorrow, 8 August, Saturday

Time Temperature Precipitation Wind Pressure Humidity
00:00 +23°C° 0 mm 2 mps 752 mmHg 72%
01:00 +21°C° 0 mm 2 mps 752 mmHg 72%
02:00 +21°C° 0 mm 2 mps 752 mmHg 75%
03:00 +20°C° 0 mm 2 mps 752 mmHg 78%
04:00 +20°C° 0 mm 2 mps 752 mmHg 81%
05:00 +21°C° 0 mm 2 mps 752 mmHg 79%
06:00 +23°C° 0 mm 2 mps 753 mmHg 76%
07:00 +24°C° 0 mm 3 mps 753 mmHg 74%
08:00 +26°C° 0 mm 3 mps 753 mmHg 68%
09:00 +28°C° 0 mm 3 mps 753 mmHg 62%
10:00 +29°C° 0 mm 3 mps 753 mmHg 55%
11:00 +30°C° 0 mm 3 mps 753 mmHg 53%
12:00 +31°C° 0 mm 3 mps 752 mmHg 51%
13:00 +33°C° 0 mm 3 mps 752 mmHg 48%
14:00 +33°C° 0 mm 3 mps 752 mmHg 48%
15:00 +32°C° 0 mm 2 mps 751 mmHg 48%
16:00 +32°C° 0 mm 2 mps 751 mmHg 48%
17:00 +30°C° 0 mm 2 mps 751 mmHg 54%
18:00 +29°C° 0 mm 2 mps 751 mmHg 60%
19:00 +27°C° 0 mm 1 mps 751 mmHg 66%
20:00 +26°C° 0.1 mm 1 mps 751 mmHg 68%
21:00 +25°C° 0.1 mm 1 mps 751 mmHg 70%
22:00 +25°C° 0.1 mm 1 mps 751 mmHg 72%
23:00 +24°C° 0.1 mm 2 mps 751 mmHg 73%

9 August, Sunday

Time Temperature Precipitation Wind Pressure Humidity
00:00 +24°C° 0.1 mm 2 mps 751 mmHg 75%
01:00 +23°C° 0.1 mm 2 mps 751 mmHg 77%
02:00 +23°C° 0.1 mm 2 mps 751 mmHg 79%
03:00 +21°C° 0.1 mm 2 mps 751 mmHg 81%
04:00 +22°C° 0.1 mm 1 mps 750 mmHg 83%
05:00 +21°C° 0.3 mm 2 mps 751 mmHg 82%
06:00 +23°C° 0.3 mm 2 mps 751 mmHg 82%
07:00 +24°C° 0.3 mm 2 mps 751 mmHg 81%
08:00 +26°C° 0 mm 2 mps 751 mmHg 74%
09:00 +28°C° 0 mm 2 mps 751 mmHg 67%
10:00 +30°C° 0 mm 2 mps 751 mmHg 59%
11:00 +31°C° 0.5 mm 3 mps 751 mmHg 56%
12:00 +31°C° 0.5 mm 3 mps 751 mmHg 52%
13:00 +33°C° 0.5 mm 3 mps 750 mmHg 48%
14:00 +33°C° 0.1 mm 3 mps 750 mmHg 48%
15:00 +33°C° 0.1 mm 3 mps 750 mmHg 48%
16:00 +33°C° 0.1 mm 3 mps 750 mmHg 48%
17:00 +30°C° 0 mm 2 mps 750 mmHg 54%
18:00 +29°C° 0 mm 2 mps 750 mmHg 61%
19:00 +27°C° 0 mm 1 mps 750 mmHg 67%
20:00 +26°C° 0.1 mm 1 mps 750 mmHg 70%
21:00 +25°C° 0.1 mm 1 mps 750 mmHg 72%
22:00 +25°C° 0.1 mm 1 mps 751 mmHg 74%
23:00 +24°C° 0 mm 1 mps 751 mmHg 76%

10 August, Monday

Time Temperature Precipitation Wind Pressure Humidity
00:00 +23°C° 0 mm 1 mps 751 mmHg 78%
01:00 +23°C° 0 mm 1 mps 751 mmHg 80%
02:00 +22°C° 0 mm 1 mps 751 mmHg 81%
03:00 +22°C° 0 mm 1 mps 750 mmHg 81%
04:00 +22°C° 0 mm 1 mps 750 mmHg 82%
05:00 +23°C° 0 mm 1 mps 751 mmHg 78%
06:00 +24°C° 0 mm 1 mps 751 mmHg 74%
07:00 +25°C° 0 mm 1 mps 751 mmHg 70%
08:00 +27°C° 0 mm 1 mps 751 mmHg 63%
09:00 +28°C° 0 mm 2 mps 751 mmHg 56%
10:00 +30°C° 0 mm 2 mps 751 mmHg 49%
11:00 +31°C° 0 mm 2 mps 751 mmHg 46%
12:00 +32°C° 0 mm 2 mps 751 mmHg 44%
13:00 +33°C° 0 mm 3 mps 751 mmHg 41%
14:00 +33°C° 0 mm 3 mps 750 mmHg 42%
15:00 +33°C° 0 mm 3 mps 750 mmHg 42%
16:00 +33°C° 0 mm 3 mps 750 mmHg 43%
17:00 +30°C° 0 mm 2 mps 750 mmHg 49%
18:00 +28°C° 0 mm 2 mps 750 mmHg 55%
19:00 +26°C° 0 mm 1 mps 750 mmHg 61%
20:00 +26°C° 0 mm 1 mps 751 mmHg 62%
21:00 +25°C° 0 mm 1 mps 751 mmHg 62%
22:00 +22°C° 0 mm 0 mps 751 mmHg 62%
23:00 +22°C° 0 mm 0 mps 751 mmHg 63%

11 August, Tuesday

Time Temperature Precipitation Wind Pressure Humidity
00:00 +21°C° 0 mm 0 mps 751 mmHg 64%
01:00 +21°C° 0 mm 0 mps 751 mmHg 65%
02:00 +21°C° 0 mm 0 mps 751 mmHg 67%
03:00 +22°C° 0 mm 1 mps 751 mmHg 69%
04:00 +22°C° 0 mm 1 mps 751 mmHg 72%
05:00 +21°C° 0 mm 0 mps 751 mmHg 69%
06:00 +22°C° 0 mm 0 mps 752 mmHg 67%
07:00 +24°C° 0 mm 0 mps 752 mmHg 65%
08:00 +26°C° 0 mm 0 mps 752 mmHg 59%
09:00 +28°C° 0 mm 0 mps 752 mmHg 53%
10:00 +30°C° 0 mm 0 mps 752 mmHg 48%
11:00 +31°C° 0 mm 0 mps 752 mmHg 45%
12:00 +34°C° 0 mm 1 mps 751 mmHg 42%
13:00 +34°C° 0 mm 1 mps 751 mmHg 40%
14:00 +34°C° 0 mm 1 mps 751 mmHg 41%
15:00 +31°C° 0 mm 0 mps 751 mmHg 42%
16:00 +31°C° 0 mm 0 mps 750 mmHg 43%
17:00 +29°C° 0 mm 0 mps 750 mmHg 48%
18:00 +27°C° 0 mm 0 mps 750 mmHg 53%
19:00 +28°C° 0 mm 1 mps 750 mmHg 58%
20:00 +25°C° 0 mm 0 mps 750 mmHg 61%
21:00 +24°C° 0 mm 0 mps 751 mmHg 63%
22:00 +23°C° 0 mm 0 mps 751 mmHg 65%
23:00 +23°C° 0.2 mm 0 mps 751 mmHg 68%
Show more